Regional Weather Roundup
Issued by NWS

Home | Current Version | Previous Version | Text Only | Print | Product List | Glossary On
Versions: 1 2 3 4 5 6 7 8 9 10 11 12 13 14 15 16 17 18 19 20 21 22 23 24 25 26 27 28 29 30 31 32 33 34 35 36 37 38 39 40 41 42 43 44 45 46 47 48 49 50
000
ASUS45 KREV 221510
RWRNV
NEVADA REGIONAL WEATHER ROUNDUP
NATIONAL WEATHER SERVICE RENO NV
800 AM PDT TUE JUL 22 2014

NOTE: "FAIR" INDICATES FEW OR NO CLOUDS BELOW 12,000 FEET WITH NO
SIGNIFICANT WEATHER AND/OR OBSTRUCTIONS TO VISIBILITY.

NVZ001-003-004-221600-
WESTERN NEVADA

CITY           SKY/WX    TMP DP  RH WIND       PRES   REMARKS
RENO           PTSUNNY   67  52  58 CALM      30.21R
CARSON CITY    FAIR      64  54  68 CALM      30.23S
SLIDE MTN        N/A     46  45  93 SE20        N/A
PYRAMID LAKE     N/A     73 N/A N/A N2          N/A
FALLON         CLOUDY    66  52  60 S3        30.18R
LOVELOCK       MOSUNNY   67  54  63 CALM      30.18R
HAWTHORNE      SUNNY     72  54  53 CALM      30.20R
$$

NVZ002-CAZ072-073-221600-
NORTHERN AND CENTRAL SIERRA

CITY           SKY/WX    TMP DP  RH WIND       PRES   REMARKS
S. LAKE TAHOE  PTSUNNY   57  49  74 S3        30.30R
TRUCKEE        PTSUNNY   50  48  93 CALM      30.29R
SQUAW VLY 8000 NOT AVBL
BLUE CANYON    CLOUDY    64  51  62 S8        30.26R
MAMMOTH LAKES  FAIR      59  43  55 CALM      30.37R
BRIDGEPORT     FAIR      54  45  71 CALM      30.32S
$$

NVZ030-031-036-221600-
NORTHERN NEVADA

CITY           SKY/WX    TMP DP  RH WIND       PRES   REMARKS
ELKO           MOSUNNY   63  51  65 NE5       30.27R
WINNEMUCCA     PTSUNNY   64  53  67 NE7       30.21R
WENDOVER       SUNNY     75  46  35 S3        30.23R
$$

NVZ035-037-221600-
CENTRAL NEVADA

CITY           SKY/WX    TMP DP  RH WIND       PRES   REMARKS
ELY            SUNNY     64  33  31 CALM      30.35R
EUREKA           N/A     65  44  46 CALM      30.30S
$$

NVZ013-014-221600-
SOUTH CENTRAL NEVADA

CITY           SKY/WX    TMP DP  RH WIND       PRES   REMARKS
TONOPAH        SUNNY     72  33  24 CALM      30.27R
$$

NVZ017-020-022-221600-
SOUTHERN NEVADA

CITY           SKY/WX    TMP DP  RH WIND       PRES   REMARKS
LAS VEGAS      SUNNY     86  37  17 S8        30.01R
N. LAS VEGAS   SUNNY     84  38  19 N3        30.05R
NELLIS AFB     SUNNY     83  35  18 SE1       30.03R
HENDERSON      SUNNY     87  32  14 SW5       30.08R
MERCURY        SUNNY     79  33  19 CALM      30.11
$$



USA.gov is the U.S. government's official web portal to all federal, state and local government web resources and services.